Home   Weather   Stolberg (Rheinland)   Past weeks

Flag for Germany Past Weather in Stolberg (Rheinland), North Rhine-Westphalia, Germany — Yesterday and Last 2 Weeks

Now
50 °F

Passing clouds.


Feels Like: 48 °F
Forecast: 37 / 45 °F
Wind: 6 mph from South

Location: Noervenich

Current Time: Feb 27, 2017 at 4:03:29 am

Latest Report: Feb 27, 2017 at 3:20 am


Visibility: N/A

Pressure: 29.77 "Hg

Humidity: 76%

Dew Point: 43 °F

Location of Stolberg (Rheinland)Location

Past Weather in Stolberg (Rheinland) — Graph

°F

Stolberg (Rheinland) Temperature Yesterday

Maximum temperature yesterday: 57 °F (at 3:20 pm)
Minimum temperature yesterday: 45 °F (at 12:20 am)
Average temperature yesterday: 49 °F

High & Low Weather Summary for the Past Weeks

 TemperatureHumidityPressure
High57 °F (Feb 15, 3:20 pm)100% (Feb 12, 2:20 am)30.51 "Hg (Feb 12, 2:20 am)
Low32 °F (Feb 13, 3:20 am)46% (Feb 14, 2:20 pm)29.30 "Hg (Feb 23, 4:20 pm)
Average45 °F78%30.11 "Hg
* Reported Feb 12 2:20 am — Feb 27 2:20 am, Stolberg (Rheinland), Weather by CustomWeather, © 2017

Note: Actual official high and low records may vary slightly from our data, if they occured in-between our weather recording intervals... More about our weather records

Advertising

Stolberg (Rheinland) Weather History for the Previous 24 Hours

Scroll right to see more
 ConditionsComfort  
Time TempWeatherWind HumidityBarometerVisibility
2:20 am
Mon, Feb 27
50 °FPassing clouds.5 mph71%29.80 "HgN/A
1:20 am52 °FPassing clouds.8 mph67%29.80 "HgN/A
12:20 am50 °FPassing clouds.7 mph71%29.80 "HgN/A
11:20 pm
Sun, Feb 26
50 °FPassing clouds.6 mph71%29.83 "HgN/A
10:20 pm48 °FPassing clouds.7 mph76%29.83 "HgN/A
9:20 pm48 °FCool.10 mph76%29.86 "HgN/A
8:20 pm50 °FCool.8 mph76%29.86 "HgN/A
7:20 pm50 °FCool.8 mph76%29.86 "HgN/A
6:20 pm52 °FCool.8 mph72%29.86 "HgN/A
5:20 pm54 °FCool.8 mph67%29.86 "HgN/A
4:20 pm55 °FCool.12 mph63%29.86 "HgN/A
3:20 pm57 °FRefreshingly cool.9 mph55%29.86 "HgN/A
2:20 pm55 °FRefreshingly cool.6 mph55%29.86 "HgN/A
1:20 pm54 °FPartly sunny.7 mph63%29.89 "HgN/A
12:20 pm54 °FScattered clouds.9 mph54%29.89 "HgN/A
11:20 am52 °FPassing clouds.10 mph62%29.89 "HgN/A
10:20 am50 °FScattered clouds.12 mph62%29.89 "HgN/A
9:20 am48 °FPartly sunny.6 mph58%29.89 "HgN/A
8:20 am45 °FPartly sunny.6 mph66%29.89 "HgN/A
7:20 am45 °FPassing clouds.7 mph66%29.89 "HgN/A
6:20 am45 °FPassing clouds.6 mph66%29.89 "HgN/A
5:20 am45 °FQuite cool.9 mph61%29.92 "HgN/A
4:20 am45 °FQuite cool.8 mph61%29.92 "HgN/A
Weather by CustomWeather, © 2017

See weather overviewHow to use our weather pages